Theta_e
303 303 303 303 303 304 304 304 304 304 305 305 305 305 307 310 312 314 321 328 331 332 333 334 335 335 337 337 338 338 338 335 332 335 337 337 337 339 336 336 340 339 338 337 337 341 339 339 338 341 347 344 340 335
302 303 303 303 303 303 304 304 304 304 304 304 305 305 307 310 311 311 318 326 330 330 332 333 332 334 334 335 336 337 337 337 336 339 340 339 342 341 341 336 337 339 336 337 337 345 341 339 342 341 346 346 344 339
302 303 303 303 303 303 303 302 303 303 304 304 304 306 309 312 311 311 314 320 325 328 330 330 331 332 332 332 333 335 334 333 334 334 339 340 341 342 338 340 342 337 342 345 342 344 341 340 339 339 340 345 346 347
302 302 303 303 302 302 302 302 303 303 303 303 305 305 310 311 311 311 312 318 323 328 331 333 333 333 332 332 330 331 332 333 334 334 335 336 336 337 340 343 343 344 340 341 342 344 342 339 340 341 341 342 346 347
302 302 302 302 302 302 302 302 302 303 303 303 304 305 308 310 310 310 311 314 319 325 331 332 332 333 334 333 333 331 330 331 333 332 333 334 334 336 337 338 341 341 343 338 340 344 342 340 339 341 340 339 339 341
302 302 302 302 302 302 303 303 303 303 302 303 304 304 306 309 309 312 320 318 319 322 326 332 332 333 334 333 334 333 332 331 330 330 333 332 331 336 337 338 336 336 338 337 341 343 342 340 340 340 340 338 338 338
302 302 302 302 303 303 303 303 303 303 303 303 303 303 305 308 310 311 316 319 321 322 326 329 330 332 332 333 333 334 334 333 332 331 332 333 334 335 337 338 336 334 335 336 337 340 341 340 340 339 339 340 339 339
303 302 302 302 303 303 303 303 304 303 303 303 303 303 304 307 310 311 315 315 316 322 326 330 331 332 332 333 333 333 334 335 334 334 333 335 335 336 339 337 332 336 336 335 335 336 336 335 335 336 338 338 337 338
303 302 302 302 302 303 303 303 304 303 302 302 303 304 306 308 311 315 316 317 317 319 322 329 332 335 332 333 333 334 334 337 335 338 335 336 338 341 339 337 334 334 336 335 335 334 333 334 336 337 337 336 335 336
302 302 302 301 302 302 303 303 303 304 302 302 304 309 312 314 314 314 315 316 316 318 319 323 329 333 333 334 335 335 335 338 340 339 336 341 340 337 337 337 336 337 336 336 335 334 334 334 335 336 336 336 335 336
301 302 302 302 302 302 303 303 304 303 303 306 310 312 313 313 315 316 318 318 318 320 319 322 326 331 331 334 337 334 337 337 339 339 340 340 340 340 337 337 337 337 337 337 336 336 336 336 337 338 338 338 335 336
301 301 302 302 302 302 303 303 304 302 305 306 306 308 311 313 315 316 317 317 319 322 321 324 324 326 330 330 337 339 338 340 338 336 340 341 341 338 337 337 338 340 340 338 338 340 339 338 339 339 339 338 337 339
301 301 301 301 302 302 303 303 304 302 303 304 308 310 313 314 314 315 317 318 319 322 318 322 328 325 327 329 332 337 339 338 336 337 339 341 339 341 340 338 341 341 338 337 337 337 338 338 337 339 339 339 339 339
303 302 301 301 301 303 303 303 304 303 303 307 310 313 313 315 316 317 318 320 320 319 318 316 323 328 327 331 333 337 335 336 339 339 339 338 348 343 342 342 341 340 338 338 338 338 339 339 339 340 340 341 340 339
303 302 301 301 302 303 303 304 303 303 305 305 309 312 314 313 315 316 316 318 319 317 316 318 318 322 330 330 331 333 337 337 337 338 337 348 346 343 342 341 340 340 338 338 338 339 339 340 342 342 341 342 342 342
302 301 302 303 303 304 304 304 303 304 304 304 307 311 312 314 315 315 316 318 319 317 316 315 319 320 329 329 331 334 335 335 335 343 343 344 341 340 339 339 338 337 337 337 338 339 340 341 341 342 342 341 342 343
301 304 304 303 304 304 304 303 303 303 304 306 309 309 310 311 313 315 314 313 316 319 317 315 315 319 317 325 329 330 331 333 334 339 340 339 338 336 335 335 334 334 335 334 335 335 336 337 337 338 340 342 341 342
303 305 303 304 304 303 303 302 303 303 305 305 308 309 311 312 312 313 313 313 315 316 317 315 313 315 317 320 321 320 319 322 330 333 335 335 333 331 331 331 330 331 331 331 332 332 331 333 334 335 337 336 336 336
305 303 304 304 304 303 302 303 303 304 305 307 308 309 309 310 312 313 312 311 313 314 315 315 315 317 318 318 317 318 317 317 321 330 330 329 329 328 329 329 329 329 329 329 329 329 329 329 329 330 330 331 333 335
303 304 303 303 303 303 304 305 304 306 308 309 309 309 308 309 310 312 312 312 312 313 314 315 315 316 314 316 316 316 316 315 318 327 327 327 327 327 326 326 326 326 326 324 325 323 324 325 327 327 327 329 330 329
304 303 304 304 303 304 306 305 306 306 307 309 309 309 310 310 310 310 312 311 312 313 313 314 314 316 313 313 314 314 315 316 317 317 321 321 321 323 323 323 323 323 322 321 322 322 322 323 323 324 324 325 325 327
303 303 304 303 304 306 306 306 306 307 307 308 308 309 310 310 311 311 311 312 312 312 312 313 315 314 315 313 314 315 314 315 315 315 314 317 319 318 319 321 322 321 321 321 321 322 322 322 322 323 323 322 323 324
303 303 305 305 306 305 304 306 307 308 309 310 310 312 312 311 311 312 313 312 312 312 313 314 315 314 314 313 314 315 315 315 315 316 316 316 316 316 318 318 318 319 320 321 321 321 321 321 321 321 322 322 322 324
303 305 306 306 306 306 307 307 308 308 309 310 311 312 313 313 312 312 314 313 313 313 313 314 316 315 314 313 315 317 317 316 317 317 317 316 316 316 317 317 318 318 319 320 320 321 321 321 321 321 322 322 322 322
304 304 305 302 306 307 308 309 309 309 310 311 311 312 313 313 314 313 315 314 314 313 313 313 313 315 316 315 315 316 317 317 318 317 316 316 316 316 316 317 318 319 319 320 320 321 321 321 321 322 322 322 322 323
305 306 305 307 308 308 308 310 310 311 311 311 312 312 312 314 314 314 312 311 314 314 314 315 315 314 314 313 313 314 314 315 315 315 316 315 316 317 317 318 319 319 320 319 319 320 321 321 320 321 321 321 322 323
304 307 307 306 307 307 309 309 309 310 311 312 313 313 313 314 315 313 312 312 315 314 313 313 315 315 316 315 316 315 317 316 315 315 317 318 318 318 318 318 318 319 319 320 319 319 319 319 319 320 320 321 322 322
306 307 308 309 309 309 309 309 310 311 313 312 312 314 314 313 313 313 313 314 314 315 315 316 315 314 315 316 316 316 316 316 316 316 316 316 317 317 317 318 318 318 318 317 317 319 319 320 320 320 321 321 321 321
308 308 308 309 310 310 309 310 311 312 312 312 314 313 313 313 314 314 314 314 314 313 314 314 314 315 314 314 314 314 314 315 315 316 316 316 316 317 318 319 318 317 318 318 318 318 318 318 319 320 320 320 321 321
309 309 309 310 311 312 311 312 312 312 311 312 313 313 313 313 313 313 313 313 313 314 314 313 314 314 314 315 315 315 315 316 316 317 317 317 316 316 317 317 317 317 317 318 318 318 318 318 320 321 321 322 321 322
309 309 309 309 310 310 311 311 310 310 311 311 312 312 312 312 312 314 314 313 314 314 315 314 314 315 315 314 315 316 316 315 315 316 316 316 316 316 316 316 316 316 316 317 316 318 319 320 321 321 321 321 320 319
308 308 309 310 309 309 310 310 310 310 311 312 313 313 313 313 314 315 314 315 314 314 314 314 315 316 316 316 315 315 314 315 315 315 315 315 316 316 316 315 315 316 316 316 317 317 319 320 319 319 319 318 318 318
308 308 309 309 309 310 312 311 311 311 312 312 312 312 312 313 314 312 313 314 314 314 314 315 315 315 316 315 315 315 314 315 314 313 312 312 311 311 313 314 314 314 314 315 315 315 316 317 319 319 318 318 318 317
Wind_Speed
20 19 20 21 22 22 23 21 21 21 21 20 20 19 18 18 15 16 13 8 9 17 31 21 15 15 15 10 8 7 2 9 9 7 9 9 6 2 6 9 8 6 5 9 9 12 9 9 4 5 7 21 24 41
20 20 20 21 22 21 22 22 20 20 20 20 18 16 16 16 15 13 9 7 9 17 24 16 19 18 15 14 14 17 10 6 6 5 5 3 9 3 3 6 9 4 6 8 11 5 8 7 7 4 10 13 26 48
20 20 19 19 20 20 21 20 20 19 19 19 18 13 14 15 14 13 15 11 10 17 27 29 28 23 23 23 15 15 13 6 7 9 9 7 4 7 3 5 12 8 6 3 1 10 6 9 6 4 3 6 5 8
20 19 18 18 20 18 17 18 19 19 18 19 18 15 12 14 14 14 14 9 8 11 9 19 20 23 24 21 24 21 23 12 9 5 8 6 5 5 8 4 3 4 7 3 1 9 7 2 1 4 3 2 9 8
21 19 19 17 16 15 16 17 18 18 18 18 18 16 15 15 15 17 16 14 11 11 7 17 30 13 17 21 18 22 21 18 14 11 6 8 13 7 7 9 7 6 3 6 2 11 6 7 3 5 4 3 3 5
21 19 17 15 14 15 16 18 18 18 18 18 19 18 15 14 15 12 4 4 14 14 6 5 7 22 15 18 20 21 20 20 20 19 13 16 17 2 3 8 12 16 7 11 6 7 4 3 10 7 6 3 5 4
21 20 18 18 18 17 18 19 19 19 18 19 20 20 16 13 12 9 7 4 16 13 6 6 7 14 20 20 22 20 21 20 19 20 19 17 11 7 5 10 4 14 6 3 5 7 3 6 6 5 7 6 5 3
21 21 21 20 19 20 20 20 20 20 18 18 20 21 16 13 12 12 8 12 5 8 7 5 7 16 26 20 20 21 20 22 23 20 20 17 17 9 7 13 19 5 3 3 3 5 10 10 10 10 7 6 7 7
20 19 20 21 20 20 20 19 19 19 18 17 20 16 8 8 7 9 12 8 6 10 5 5 10 9 18 21 20 20 20 9 14 12 16 13 11 10 9 11 13 14 12 10 9 10 10 5 11 8 7 8 7 10
20 19 20 18 18 18 18 18 17 16 14 15 13 3 6 6 7 7 4 4 6 6 6 5 13 13 9 20 19 14 16 8 9 13 15 13 13 21 19 13 15 10 10 11 14 15 11 10 9 10 11 12 9 10
20 20 20 19 18 17 16 15 15 14 9 7 4 4 8 4 5 5 6 6 6 4 7 8 20 13 15 4 8 21 8 9 11 10 14 11 13 15 20 22 14 16 12 10 10 9 9 10 10 6 7 9 12 11
20 20 18 18 18 16 14 12 11 10 9 10 14 14 8 4 3 3 3 3 4 3 7 10 26 25 11 6 5 4 10 6 9 14 15 16 10 25 28 23 22 19 15 13 12 9 8 6 6 6 5 5 9 7
19 19 16 14 15 14 13 11 10 10 12 9 5 5 4 5 1 4 4 3 3 1 5 6 6 17 9 5 8 3 2 10 4 11 16 12 19 14 22 28 24 20 17 16 15 11 8 8 9 9 8 8 8 8
18 17 15 14 13 11 11 10 12 8 4 4 4 4 4 4 6 5 8 6 6 5 4 10 7 6 5 2 2 5 3 3 9 15 18 8 13 21 17 27 26 21 18 16 14 12 9 8 9 11 11 10 10 10
14 13 13 13 12 11 11 7 6 6 3 3 4 4 6 7 5 10 6 2 4 4 6 3 5 4 3 2 4 3 4 6 6 16 10 17 19 23 24 24 21 18 16 14 13 11 9 8 7 8 9 9 10 10
10 11 13 11 11 12 10 12 11 7 2 3 6 7 9 10 6 11 11 8 3 6 4 4 2 3 5 4 2 5 5 6 5 3 14 19 18 16 16 16 17 15 14 13 11 10 9 7 7 7 6 5 6 7
9 7 5 8 10 11 10 10 7 5 4 4 7 12 15 12 11 8 7 13 12 2 3 3 2 1 6 4 8 6 9 5 12 12 16 17 17 16 14 15 14 14 13 11 11 9 8 8 6 6 6 7 4 3
7 6 7 10 10 10 12 8 3 4 5 8 11 15 9 9 12 7 2 2 9 3 3 4 2 1 2 5 4 8 23 35 9 17 15 14 14 14 12 11 10 10 11 9 8 8 7 7 6 6 6 5 4 5
6 4 7 8 14 11 6 6 5 4 10 12 13 17 15 13 9 6 6 5 6 2 1 4 3 3 3 1 13 19 23 22 22 14 16 16 13 13 12 11 10 10 9 9 8 7 8 6 4 4 4 4 4 2
2 2 6 10 15 4 3 4 5 5 6 6 10 12 15 14 12 9 11 10 11 4 4 3 4 5 2 14 12 9 12 18 17 9 15 14 11 10 10 10 10 10 8 7 6 5 5 3 5 4 4 4 3 4
6 8 9 14 11 6 3 3 5 7 9 7 11 10 10 10 14 16 19 16 16 12 9 12 10 11 11 10 7 2 4 9 16 16 10 12 10 10 8 6 8 7 7 7 6 8 6 5 4 4 3 4 5 6
10 9 9 8 3 4 5 6 5 5 6 12 14 12 12 9 12 12 15 17 17 19 16 14 8 13 8 7 10 4 10 3 8 12 11 7 4 5 6 8 9 8 7 6 6 6 5 4 4 3 3 5 6 7
9 7 3 4 3 3 5 5 4 4 4 3 4 4 5 9 11 7 6 12 17 16 13 11 7 10 9 9 12 8 7 3 5 1 4 5 4 3 4 6 6 5 4 4 4 4 5 4 4 4 4 5 6 7
7 3 3 3 5 5 4 6 6 5 5 5 3 4 1 1 5 5 7 11 11 16 16 13 15 13 11 10 13 15 15 14 13 9 11 7 7 6 6 6 7 6 7 6 6 6 5 5 5 5 6 5 6 6
2 3 3 4 5 4 4 4 7 5 4 5 7 5 1 2 1 3 3 5 11 7 11 16 16 23 18 14 18 19 12 14 19 14 9 8 7 7 6 6 6 7 7 7 7 7 6 6 5 5 6 6 6 7
3 5 3 3 3 4 3 4 4 5 8 4 3 4 1 3 3 3 3 5 1 4 8 8 10 14 13 15 16 14 12 12 12 9 6 7 7 5 5 7 8 9 8 6 6 4 5 7 8 8 8 9 9 6
3 4 6 7 7 7 6 6 9 6 5 2 3 4 3 2 5 3 4 7 7 5 1 15 6 5 3 6 5 8 4 8 8 8 3 5 1 3 4 4 3 1 2 3 2 4 7 9 10 10 11 10 7 8
7 4 6 2 5 4 3 4 4 2 2 4 6 3 2 3 4 3 6 4 9 6 2 12 9 8 12 4 6 8 6 6 6 5 5 5 4 3 4 4 2 1 3 5 5 6 5 7 8 10 10 8 7 7
8 3 5 6 5 3 3 4 3 4 5 2 5 2 3 5 6 7 6 5 2 2 4 2 1 3 4 4 4 4 4 3 2 2 4 6 5 4 3 4 2 0 5 6 1 1 6 9 9 10 12 11 9 8
10 9 8 1 1 3 6 7 10 13 7 9 8 5 5 9 8 7 8 1 2 3 4 2 6 1 5 4 4 4 2 2 5 3 2 1 4 4 3 1 4 6 6 6 7 9 11 11 10 10 6 6 9 10
7 7 10 11 10 10 8 9 10 9 9 6 8 5 7 8 4 7 6 2 2 6 8 5 5 8 8 1 3 1 4 3 4 1 0 2 5 3 3 4 6 5 5 6 8 9 10 11 9 9 8 6 7 10
7 7 9 8 11 9 9 8 6 8 6 4 3 6 7 11 6 3 5 9 6 6 7 8 6 5 3 4 4 3 3 3 2 0 3 4 3 4 4 2 4 5 6 8 7 7 7 6 5 6 6 5 6 8
6 7 8 8 8 3 9 8 5 7 7 7 6 8 6 6 3 2 2 5 6 8 8 7 5 3 4 5 2 1 2 3 6 8 11 14 15 17 17 13 8 9 9 4 8 13 13 9 5 6 6 3 5 6
Wind_Direction
311 314 316 317 319 315 315 315 314 316 317 314 314 312 312 308 302 292 245 226 265 280 276 282 287 292 284 291 271 40 271 238 268 227 276 270 270 135 270 273 1 212 234 249 264 284 254 40 1 35 94 161 158 112
312 312 313 315 316 312 313 313 311 312 316 317 312 309 312 311 299 287 278 269 267 259 260 283 280 269 273 282 303 301 292 311 355 302 319 341 255 127 336 239 170 275 248 234 245 84 86 68 104 50 57 120 174 166
307 307 306 307 308 309 309 312 311 308 311 316 315 303 309 310 307 288 267 272 299 286 287 267 257 253 250 247 243 275 277 273 274 291 318 303 2 326 206 165 259 235 324 13 150 119 95 61 47 49 198 146 184 149
299 303 305 307 308 309 314 316 315 310 309 313 312 299 298 310 306 294 275 256 275 280 282 274 246 245 234 232 232 233 251 287 275 313 267 271 280 221 268 22 258 355 170 260 132 112 92 92 62 109 97 57 44 85
292 294 298 301 304 308 315 315 316 315 307 311 313 306 279 290 302 300 278 254 237 249 308 299 299 248 215 219 224 224 232 238 243 254 237 248 257 271 270 291 268 173 167 211 307 134 134 123 157 161 133 111 78 57
285 287 288 289 296 306 310 315 311 313 309 309 311 308 284 290 295 321 279 211 224 240 258 265 324 238 227 209 217 218 222 228 234 242 247 247 251 258 261 243 243 274 216 214 147 141 179 134 175 199 164 188 144 138
283 278 276 279 286 295 302 305 306 306 306 307 307 309 292 271 278 255 269 306 201 193 233 249 244 231 219 218 213 216 219 223 227 230 244 251 246 182 249 273 263 225 262 356 95 122 175 214 179 180 206 205 178 200
281 275 273 277 283 290 298 301 300 302 304 304 307 307 297 264 266 278 279 259 295 205 253 259 260 265 200 207 211 209 214 215 224 233 236 238 249 212 232 242 266 250 231 246 240 213 219 216 219 215 168 224 238 211
278 278 276 274 280 287 291 297 302 301 305 305 307 304 284 250 237 238 248 260 218 215 283 274 231 232 174 204 202 202 212 207 211 219 228 233 223 223 207 242 242 223 193 205 210 213 224 252 182 193 200 225 235 237
272 272 274 273 279 286 286 294 299 300 305 306 310 250 241 201 223 277 226 205 210 224 235 259 262 259 288 199 213 196 201 216 209 217 218 225 241 222 210 206 225 242 210 204 220 213 213 223 220 221 231 240 239 231
273 269 267 266 277 283 283 289 298 295 307 294 253 256 322 296 237 223 209 206 192 233 211 231 252 268 304 339 258 212 181 209 228 211 204 217 218 223 218 202 195 207 186 198 197 201 202 198 196 196 229 233 222 213
265 263 261 266 260 275 280 277 282 276 273 292 308 306 294 255 236 267 209 225 222 247 186 231 230 239 275 326 285 287 216 192 225 212 215 218 219 207 205 207 187 181 189 201 198 188 191 193 200 216 229 228 217 218
260 261 262 260 252 264 269 268 264 262 278 295 248 256 229 203 262 224 204 222 255 138 356 322 259 225 237 239 287 261 314 224 237 226 218 219 211 184 190 193 177 183 187 194 197 205 218 226 223 222 222 221 223 223
260 257 258 252 243 253 257 260 254 255 271 266 273 272 236 224 233 195 225 230 183 153 349 350 318 339 221 31 348 284 253 280 221 233 228 219 155 151 164 172 168 182 194 202 207 214 221 228 224 218 218 219 218 221
255 248 244 235 236 243 244 237 209 205 247 270 273 247 242 255 331 288 348 231 125 107 51 8 328 305 245 205 240 37 270 199 214 219 239 124 136 139 145 155 171 180 188 197 200 206 210 204 200 204 207 213 210 221
232 233 237 225 222 225 237 216 197 206 239 251 248 256 291 314 353 359 4 337 104 118 113 57 358 294 232 172 263 172 271 200 221 74 109 127 127 130 140 154 163 168 174 178 177 177 179 181 187 185 189 198 204 212
212 227 221 211 212 219 208 186 189 213 239 244 251 257 271 276 302 359 21 344 323 184 90 54 346 358 287 277 191 227 245 307 36 80 117 126 128 130 135 137 143 146 154 163 163 164 174 181 189 197 197 182 198 164
207 221 224 204 187 173 180 193 203 236 244 250 254 264 269 287 282 281 319 346 338 36 126 136 243 250 295 283 318 344 336 320 329 117 122 124 126 129 133 136 137 148 153 153 161 171 181 185 194 199 190 208 231 253
215 227 198 193 182 172 178 205 211 251 241 258 262 265 267 266 270 254 258 272 276 286 165 188 177 259 256 359 318 314 317 320 313 135 129 129 131 135 139 144 150 155 159 165 172 181 173 179 187 190 208 231 247 239
213 201 173 176 188 176 204 215 213 259 275 255 262 260 258 261 269 247 238 226 235 245 229 218 234 211 242 308 303 290 293 328 359 164 135 131 139 141 147 158 168 169 173 179 187 170 202 198 203 218 220 208 204 268
144 152 174 188 198 224 258 236 244 260 287 275 276 276 276 267 249 224 230 241 215 225 252 251 254 246 264 275 267 261 203 330 353 358 86 131 143 155 167 166 157 176 176 181 194 181 193 212 206 213 242 259 251 254
162 167 171 191 231 237 248 237 251 277 270 274 287 278 266 262 264 245 256 233 230 236 237 256 244 226 211 232 195 193 153 129 13 30 32 85 135 148 168 176 179 181 183 179 189 201 188 187 200 211 241 269 273 271
159 169 224 217 255 249 268 221 243 242 256 257 272 265 250 241 238 240 249 242 237 233 223 216 197 201 163 171 173 153 130 139 185 223 324 335 272 223 227 198 194 194 204 203 206 208 214 221 262 256 244 268 275 275
170 225 238 234 217 262 248 214 234 254 264 270 255 270 293 298 316 260 233 258 252 224 200 185 191 187 179 220 242 239 232 215 233 249 238 232 306 274 220 217 207 209 213 212 217 221 226 232 235 252 255 260 276 281
247 243 225 260 249 250 251 241 216 237 257 269 273 273 184 216 252 283 330 298 333 216 198 191 202 204 205 226 245 242 223 224 236 238 244 241 223 220 224 215 205 216 210 210 213 216 230 243 254 258 264 274 284 286
251 214 190 258 248 259 292 314 327 325 300 280 280 303 31 203 222 225 207 251 199 256 253 225 215 212 207 218 229 244 232 216 226 235 246 260 253 224 212 207 217 215 201 205 220 228 237 246 254 266 274 277 277 263
258 235 225 249 268 280 294 299 297 279 291 332 307 297 277 279 26 351 308 349 181 112 239 218 339 338 355 203 159 205 101 168 185 198 212 243 214 211 247 254 270 149 85 43 335 306 282 274 270 270 272 276 262 276
243 274 272 265 262 261 296 315 281 288 29 323 325 322 349 205 227 259 166 307 330 315 356 166 171 102 157 183 165 171 182 180 184 205 225 228 221 235 266 337 8 328 324 312 260 257 287 290 274 274 299 301 289 293
244 250 239 235 251 272 234 230 296 285 219 28 315 179 1 287 287 280 289 283 314 7 61 7 68 180 198 190 202 204 206 222 348 264 216 229 230 223 264 308 291 53 314 343 169 298 277 282 288 291 289 288 303 286
252 222 224 350 280 245 234 220 242 255 281 224 219 249 190 263 269 264 258 286 322 346 301 332 293 204 242 209 207 189 193 116 147 146 263 51 272 244 17 331 201 294 312 305 302 306 310 303 297 270 270 279 284 272
254 227 238 261 270 286 275 266 271 286 299 298 291 298 299 301 348 50 349 354 12 338 353 340 351 355 24 351 277 181 228 208 347 231 35 80 67 105 235 264 280 288 309 313 305 307 294 293 296 293 285 284 307 308
271 273 277 290 287 291 291 295 300 299 318 343 314 337 321 310 339 49 350 356 346 343 329 337 353 6 10 88 71 93 80 140 208 161 317 303 304 306 280 298 307 321 292 278 306 340 314 276 283 312 308 314 318 324
251 264 275 283 284 338 5 334 320 350 355 356 352 355 343 334 320 316 5 360 23 358 334 313 300 304 331 318 306 246 244 255 282 274 286 282 273 265 258 251 285 295 282 301 310 305 306 318 278 269 265 280 315 328